Location: Newark
(42.1399°N, 3.1179°E)
Time: 08:30:01
(UTC+00:00)

X-37B - Visible Passes

Search period start: 20 September 2020 00:00
Search period end: 30 September 2020 00:00
Orbit: 386 x 387 km, 45.0° (Epoch: 18 September)

Date Brightness Start Highest point End Pass type
(mag) Time Alt. Az. Time Alt. Az. Time Alt. Az.
20 Sep 3.3 03:05:33 20° ENE 03:05:33 20° ENE 03:06:44 10° ENE visible
20 Sep 0.8 04:37:50 14° WNW 04:40:29 71° NNE 04:43:40 10° E visible
21 Sep 1.2 03:42:02 53° NNE 03:42:02 53° NNE 03:44:58 10° E visible
22 Sep 0.5 04:18:37 32° WNW 04:19:57 79° SSW 04:23:07 10° ESE visible
23 Sep 2.8 03:23:00 25° E 03:23:00 25° E 03:24:32 10° E visible
23 Sep 1.7 04:55:19 12° W 04:57:48 28° SSW 05:00:34 10° SSE visible
24 Sep 1.2 03:59:50 42° S 03:59:50 42° S 04:02:25 10° SE visible
25 Sep 2.4 04:36:50 16° SW 04:37:04 16° SW 04:39:07 10° S visible
